TimeCST,TemperatureF,Dew PointF,Humidity,Sea Level PressureIn,VisibilityMPH,Wind Direction,Wind SpeedMPH,Gust SpeedMPH,PrecipitationIn,Events,Conditions,WindDirDegrees,DateUTC
12:56 AM,55.9,53.1,90,30.19,0.2,Calm,Calm,-,N/A,Fog,Fog,0,2012-12-03 06:56:00
1:56 AM,55.9,53.1,90,30.19,0.5,Calm,Calm,-,N/A,Fog,Fog,0,2012-12-03 07:56:00
2:06 AM,55.4,53.6,94,30.24,0.2,North,3.5,-,N/A,Fog,Fog,360,2012-12-03 08:06:00
2:56 AM,55.9,54.0,93,30.20,0.2,NE,3.5,-,N/A,Fog,Fog,40,2012-12-03 08:56:00
3:22 AM,57.2,55.4,94,30.24,0.5,Calm,Calm,-,N/A,Fog,Fog,0,2012-12-03 09:22:00
3:33 AM,57.2,55.4,94,30.24,0.2,Calm,Calm,-,N/A,Fog,Fog,0,2012-12-03 09:33:00
3:56 AM,57.9,55.9,93,30.20,0.2,Calm,Calm,-,N/A,Fog,Fog,0,2012-12-03 09:56:00
4:56 AM,59.0,57.0,93,30.20,0.2,Calm,Calm,-,N/A,Fog,Fog,0,2012-12-03 10:56:00
5:31 AM,57.2,55.4,94,30.24,0.5,Calm,Calm,-,N/A,Fog,Fog,0,2012-12-03 11:31:00
5:49 AM,57.2,55.4,94,30.25,0.8,Calm,Calm,-,N/A,,Mist,0,2012-12-03 11:49:00
5:56 AM,55.9,54.0,93,30.22,0.5,Calm,Calm,-,N/A,Fog,Fog,0,2012-12-03 11:56:00
6:56 AM,55.9,54.0,93,30.23,2.0,Calm,Calm,-,N/A,,Scattered Clouds,0,2012-12-03 12:56:00
7:08 AM,55.4,53.6,94,30.27,5.0,Calm,Calm,-,N/A,,Scattered Clouds,0,2012-12-03 13:08:00
7:56 AM,62.1,60.1,93,30.25,8.0,ESE,8.1,-,N/A,,Scattered Clouds,110,2012-12-03 13:56:00
8:56 AM,66.9,61.0,81,30.25,10.0,ESE,6.9,-,N/A,,Scattered Clouds,110,2012-12-03 14:56:00
9:56 AM,72.0,57.9,61,30.25,10.0,SE,8.1,-,N/A,,Scattered Clouds,130,2012-12-03 15:56:00
10:56 AM,75.0,57.0,53,30.23,10.0,SE,8.1,-,N/A,,Scattered Clouds,130,2012-12-03 16:56:00
11:56 AM,78.1,55.0,45,30.20,10.0,SE,11.5,-,N/A,,Scattered Clouds,140,2012-12-03 17:56:00
12:56 PM,78.1,55.0,45,30.18,10.0,South,10.4,-,N/A,,Scattered Clouds,170,2012-12-03 18:56:00
1:56 PM,77.0,55.0,47,30.16,10.0,South,11.5,18.4,N/A,,Scattered Clouds,170,2012-12-03 19:56:00
2:56 PM,77.0,55.0,47,30.16,10.0,SSE,11.5,-,N/A,,Scattered Clouds,160,2012-12-03 20:56:00
3:56 PM,75.0,55.0,50,30.16,10.0,SSE,10.4,-,N/A,,Scattered Clouds,160,2012-12-03 21:56:00
4:56 PM,69.1,55.0,61,30.18,10.0,South,4.6,-,N/A,,Scattered Clouds,170,2012-12-03 22:56:00
5:56 PM,66.9,57.9,73,30.19,10.0,SSE,3.5,-,N/A,,Partly Cloudy,160,2012-12-03 23:56:00
6:56 PM,63.0,61.0,93,30.19,10.0,SE,3.5,-,N/A,,Clear,140,2012-12-04 00:56:00
7:56 PM,63.0,61.0,93,30.19,5.0,Calm,Calm,-,N/A,,Partly Cloudy,0,2012-12-04 01:56:00
8:25 PM,62.6,59.0,88,30.24,3.0,Calm,Calm,-,N/A,Fog,Patches of Fog,0,2012-12-04 02:25:00
8:56 PM,57.9,55.9,93,30.20,3.0,Calm,Calm,-,N/A,Fog,Patches of Fog,0,2012-12-04 02:56:00
9:56 PM,57.0,55.0,93,30.19,0.5,Calm,Calm,-,N/A,Fog,Fog,0,2012-12-04 03:56:00
10:56 PM,61.0,59.0,93,30.19,0.5,ESE,4.6,-,N/A,Fog,Fog,120,2012-12-04 04:56:00
11:03 PM,62.6,60.8,94,30.22,0.2,Calm,Calm,-,N/A,Fog,Fog,0,2012-12-04 05:03:00
11:37 PM,60.8,59.0,94,30.22,0.2,ESE,3.5,-,N/A,Fog,Fog,110,2012-12-04 05:37:00
11:56 PM,60.1,59.0,96,30.18,0.2,ESE,3.5,-,N/A,Fog,Fog,120,2012-12-04 05:56:00